Date String (YYYY-MM-DD hh:mm:ss) UTC,Instrument flags,Ambient pressure (hPa),Sample flow (lpm),Bypass flow (lpm),Sample temperature (°C),Ambient temperature (°C),ASC tube jacket temperature (°C),LED temperature (°C),Box temperature (°C),Sample RH (%),Span deviation,Mass concentration (μg/m³),Mass concentration (μg/m³),Mass concentration (μg/m³)
DateTimeUTC,F1_M11,P_M11,Q1_M11,Q2_M11,T1_M11,T2_M11,T3_M11,T4_M11,T5_M11,U1_M11,ZSPAN_M11,X0_M11,X2_M11,X1_M11
2023-02-25 02:00:00,,0826.5,5.00,0.00,21.8,19.7,00.0,30.7,23.2,08.7,0000.0,0002.41,0001.11,0000.87
2023-02-25 02:01:00,,0826.5,5.02,0.00,21.8,20.4,00.0,30.7,23.4,08.7,0000.0,0002.41,0001.12,0000.89
2023-02-25 02:02:00,,0826.4,5.00,0.00,21.9,21.7,00.0,30.7,23.7,08.6,0000.0,0002.43,0001.14,0000.93
2023-02-25 02:03:00,,0826.4,4.97,0.00,22.0,22.6,00.0,30.7,24.0,08.5,0000.0,0002.47,0001.18,0000.96
2023-02-25 02:04:00,,0826.4,4.96,0.00,22.1,22.3,00.0,30.8,23.9,08.6,0000.0,0002.47,0001.21,0000.98
2023-02-25 02:05:00,,0826.4,5.01,0.00,22.1,21.8,00.0,30.8,23.9,08.5,0000.0,0002.50,0001.23,0000.99
2023-02-25 02:06:00,,0826.3,4.99,0.00,22.1,21.2,00.0,30.8,23.8,08.5,0000.0,0002.43,0001.22,0001.00
2023-02-25 02:07:00,,0826.3,4.97,0.00,22.0,20.9,00.0,30.8,23.6,08.5,0000.0,0002.21,0001.24,0000.99
2023-02-25 02:08:00,,0826.3,5.00,0.00,22.0,20.6,00.0,30.8,23.6,08.4,0000.0,0001.81,0001.20,0000.95
2023-02-25 02:09:00,,0826.3,4.99,0.00,22.0,20.5,00.0,30.8,23.6,08.4,0000.0,0001.74,0001.15,0000.92
2023-02-25 02:10:00,,0826.3,5.01,0.00,21.9,20.3,00.0,30.8,23.5,08.4,0000.0,0001.69,0001.13,0000.92
2023-02-25 02:11:00,,0826.3,4.96,0.00,21.9,20.2,00.0,30.7,23.4,08.4,0000.0,0002.04,0001.14,0000.93
2023-02-25 02:12:00,,0826.3,5.02,0.00,21.9,20.1,00.0,30.7,23.4,08.4,0000.0,0002.90,0001.13,0000.92
2023-02-25 02:13:00,,0826.3,5.00,0.00,21.9,20.0,00.0,30.7,23.4,08.4,0000.0,0002.86,0001.11,0000.91
2023-02-25 02:14:00,,0826.3,5.00,0.00,21.8,20.0,00.0,30.7,23.4,08.3,0000.0,0002.83,0001.10,0000.89
2023-02-25 02:15:00,,0826.2,5.01,0.00,21.8,19.9,00.0,30.7,23.3,08.0,0000.0,0002.80,0001.09,0000.87
2023-02-25 02:16:00,,0826.2,5.01,0.00,21.8,20.1,00.0,30.7,23.4,08.1,0000.0,0002.69,0001.03,0000.84
2023-02-25 02:17:00,,0826.2,5.00,0.00,21.9,21.2,00.0,30.6,23.6,08.1,0000.0,0002.68,0001.00,0000.81
2023-02-25 02:18:00,,0826.2,4.97,0.00,22.0,22.4,00.0,30.6,23.9,08.3,0000.0,0002.73,0001.01,0000.80
2023-02-25 02:19:00,,0826.2,4.95,0.00,22.1,22.5,00.0,30.7,24.0,08.1,0000.0,0002.69,0000.99,0000.79
2023-02-25 02:20:00,,0826.2,5.00,0.00,22.1,21.9,00.0,30.7,23.9,08.0,0000.0,0004.37,0001.01,0000.80
2023-02-25 02:21:00,,0826.2,5.02,0.00,22.1,21.4,00.0,30.7,23.8,07.9,0000.0,0005.05,0001.00,0000.80
2023-02-25 02:22:00,,0826.2,5.01,0.00,22.0,21.0,00.0,30.8,23.7,07.9,0000.0,0005.72,0000.99,0000.79
2023-02-25 02:23:00,,0826.2,5.00,0.00,22.0,20.7,00.0,30.8,23.6,07.9,0000.0,0005.06,0000.98,0000.79
2023-02-25 02:24:00,,0826.2,5.01,0.00,21.9,20.4,00.0,30.8,23.4,08.0,0000.0,0005.05,0000.98,0000.79
2023-02-25 02:25:00,,0826.2,5.00,0.00,21.9,20.2,00.0,30.7,23.4,08.0,0000.0,0005.08,0000.99,0000.78
2023-02-25 02:26:00,,0826.2,5.02,0.00,21.9,19.9,00.0,30.7,23.4,07.9,0000.0,0004.99,0000.95,0000.77
2023-02-25 02:27:00,,0826.2,5.01,0.00,21.8,19.8,00.0,30.7,23.4,07.8,0000.0,0004.97,0000.93,0000.76
2023-02-25 02:28:00,,0826.3,5.00,0.00,21.8,19.7,00.0,30.7,23.2,07.8,0000.0,0004.95,0000.93,0000.76
2023-02-25 02:29:00,,0826.3,5.00,0.00,21.7,19.6,00.0,30.7,23.2,07.9,0000.0,0004.88,0000.91,0000.75
2023-02-25 02:30:00,,0826.3,5.03,0.00,21.8,20.6,00.0,30.6,23.4,08.1,0000.0,0004.78,0000.87,0000.75
2023-02-25 02:31:00,,0826.3,4.96,0.00,21.9,21.9,00.0,30.6,23.7,08.2,0000.0,0003.68,0000.86,0000.74
2023-02-25 02:32:00,,0826.3,5.03,0.00,22.0,22.7,00.0,30.6,24.0,08.1,0000.0,0002.65,0000.87,0000.73
2023-02-25 02:33:00,,0826.3,5.01,0.00,22.1,22.3,00.0,30.7,24.0,08.1,0000.0,0001.82,0000.88,0000.74
2023-02-25 02:34:00,,0826.3,5.00,0.00,22.1,21.8,00.0,30.7,23.8,08.1,0000.0,0001.23,0000.89,0000.75
2023-02-25 02:35:00,,0826.2,4.99,0.00,22.1,21.3,00.0,30.7,23.8,08.0,0000.0,0001.31,0000.88,0000.75
2023-02-25 02:36:00,,0826.3,5.00,0.00,22.1,21.0,00.0,30.7,23.7,07.9,0000.0,0001.26,0000.87,0000.75
2023-02-25 02:37:00,,0826.3,5.01,0.00,22.0,20.7,00.0,30.8,23.6,07.8,0000.0,0001.26,0000.88,0000.77
2023-02-25 02:38:00,,0826.3,4.99,0.00,22.0,20.6,00.0,30.8,23.5,07.6,0000.0,0001.31,0000.92,0000.80
2023-02-25 02:39:00,,0826.3,5.05,0.00,22.0,20.3,00.0,30.7,23.5,07.7,0000.0,0001.33,0000.94,0000.82
2023-02-25 02:40:00,,0826.4,5.02,0.00,21.9,20.2,00.0,30.7,23.4,07.7,0000.0,0001.66,0000.96,0000.84
2023-02-25 02:41:00,,0826.4,4.98,0.00,21.9,20.0,00.0,30.7,23.4,07.6,0000.0,0002.09,0000.98,0000.86
2023-02-25 02:42:00,,0826.5,5.00,0.00,21.8,19.9,00.0,30.7,23.3,08.0,0000.0,0002.12,0001.01,0000.88
2023-02-25 02:43:00,,0826.5,5.00,0.00,21.8,19.8,00.0,30.7,23.3,08.3,0000.0,0002.09,0001.02,0000.89
2023-02-25 02:44:00,,0826.4,5.02,0.00,21.8,20.8,00.0,30.6,23.5,08.3,0000.0,0002.11,0001.02,0000.88
2023-02-25 02:45:00,,0826.4,5.06,0.00,21.9,22.0,00.0,30.6,23.8,08.3,0000.0,0002.11,0001.03,0000.87
2023-02-25 02:46:00,,0826.5,5.02,0.00,22.1,22.8,00.0,30.7,24.0,08.3,0000.0,0002.21,0001.07,0000.87
2023-02-25 02:47:00,,0826.5,4.95,0.00,22.1,22.6,00.0,30.7,24.0,08.2,0000.0,0002.27,0001.09,0000.87
2023-02-25 02:48:00,,0826.4,5.00,0.00,22.1,21.9,00.0,30.7,23.9,08.2,0000.0,0002.31,0001.11,0000.87
2023-02-25 02:49:00,,0826.4,5.00,0.00,22.1,21.3,00.0,30.8,23.7,08.0,0000.0,0002.34,0001.11,0000.85
2023-02-25 02:50:00,,0826.4,4.99,0.00,22.0,20.9,00.0,30.8,23.6,08.0,0000.0,0002.44,0001.10,0000.83
2023-02-25 02:51:00,,0826.4,4.99,0.00,22.0,20.6,00.0,30.8,23.5,07.9,0000.0,0002.38,0001.08,0000.81
2023-02-25 02:52:00,,0826.5,4.99,0.00,21.9,20.3,00.0,30.8,23.4,08.0,0000.0,0001.86,0001.09,0000.79
2023-02-25 02:53:00,,0826.4,5.01,0.00,21.9,20.0,00.0,30.7,23.3,07.8,0000.0,0001.86,0001.07,0000.75
2023-02-25 02:54:00,,0826.4,5.00,0.00,21.8,19.9,00.0,30.7,23.3,07.6,0000.0,0001.80,0001.02,0000.73
2023-02-25 02:55:00,,0826.4,5.01,0.00,21.8,19.9,00.0,30.7,23.3,07.6,0000.0,0001.86,0001.02,0000.72
2023-02-25 02:56:00,,0826.5,5.00,0.00,21.7,19.8,00.0,30.7,23.2,07.6,0000.0,0001.82,0000.98,0000.70
2023-02-25 02:57:00,,0826.4,5.00,0.00,21.7,19.7,00.0,30.6,23.1,07.6,0000.0,0001.70,0000.94,0000.68
2023-02-25 02:58:00,,0826.4,4.97,0.00,21.7,20.3,00.0,30.6,23.3,07.7,0000.0,0001.61,0000.92,0000.66
2023-02-25 02:59:00,,0826.5,4.94,0.00,21.8,21.6,00.0,30.6,23.6,08.0,0000.0,0001.54,0000.88,0000.65
